Regional Weather Roundup
Issued by NWS

Home | Current Version | Previous Version | Text Only | Print | Product List | Glossary On
Versions: 1 2 3 4 5 6 7 8 9 10 11 12 13 14 15 16 17 18 19 20 21 22 23 24 25 26 27 28
000
ASUS42 KKEY 060410
RWRKEY

FLORIDA REGIONAL WEATHER ROUNDUP FOR THE FLORIDA KEYS
NATIONAL WEATHER SERVICE KEY WEST FLORIDA
1200 AM EDT FRI MAY 06 2016

...SOUTH FLORIDA AND THE KEYS...

CITY           SKY/WX    TMP DP  RH WIND       PRES   REMARKS
FORT MYERS     MOCLDY    70  57  63 N7        29.84R
SW REGIONAL AP CLEAR     70  58  65 CALM      29.85R
NAPLES         MOCLDY    75  58  55 N5        29.85R
MIAMI          PTCLDY    73  61  65 W6        29.84R
WEST KENDALL   PTCLDY    70  62  76 W8        29.84S
HOMESTEAD      PTCLDY    71  61  69 W6        29.84R
MARATHON       CLEAR     75  61  61 W9        29.86S
BOCA CHICA NAS CLEAR     74  62  66 W7        29.88R
KEY WEST INTL  CLEAR     73  64  73 W5        29.88S

...INTERNATIONAL WEATHER...

CITY           SKY/WX    TMP DP  RH WIND       PRES   REMARKS
NASSAU BAHAMAS NOT AVBL
CANCUN MEXICO  CLEAR     66  63  88 W3        29.96R
COZUMEL MEXICO CLEAR     70  61  73 N7        29.96R

ADJACENT COASTAL WATERS...

STATION/POSITION TIME  SKY/WX   TEMP    WIND        PRES    WAVE
                                AIR SEA DIR/SP/G            HT/PER
                 (UTC)          (F)     (DEG/KT/KT) (MB)    (FT/S)
PULASKI SHOAL LI 0400            77     310/ 11/ 12 1012.0R
SAND KEY         0350            75     310/  7/  9 1012.3R
SOMBRERO KEY     NOT AVBL
LONG KEY         0400            77 80  320/ 13/ 15 1011.4R
MOLASSES REEF    0400            76 79  320/ 15/ 17 1011.0R
FOWEY ROCKS      NOT AVBL

$$




USA.gov is the U.S. government's official web portal to all federal, state and local government web resources and services.